INMARSAT 4-F1

Last updated on Wed Sep 17 2025 00:02:46 GMT+0000 (Coordinated Universal Time)

1 28628U 05009A 25259.54767851 .00000016 00000+0 00000+0 0 9991 2 28628 4.8083 42.4539 0002889 167.4976 161.0634 1.00271493 74925
UTC large
Height (km)
Speed (km/s)
/
Latitude / Longitude
Inclination (degrees)
Orbital Period (minutes)
Azimuth
Elevation
Range (km)
Doppler Factor

Next 0 passes for location: London (51.5072 / 0.1276)

Sorry there are no passes over London.